| time (UTC) | temp F | wind direction | speed MPH | gust MPH | rain 1hr in | rain 24hr in | rain mn in | humidity % | barometer mb |
| 20260902210804 | 73 | 53 | 1.0 | 1.0 | 0.00 | 0.00 | 0.00 | 39 | 1007.8 |
| 20260902210303 | 72 | 53 | 1.0 | 1.0 | 0.00 | 0.00 | 0.00 | 38 | 1007.8 |
| 20260902205804 | 72 | 53 | 1.0 | 1.0 | 0.00 | 0.00 | 0.00 | 41 | 1007.9 |
| 20260902205306 | 72 | 53 | 1.0 | 1.0 | 0.00 | 0.00 | 0.00 | 39 | 1007.9 |
| 20260902204804 | 72 | 53 | 1.0 | 1.0 | 0.00 | 0.00 | 0.00 | 39 | 1008.0 |
| 20260902204304 | 72 | 53 | 1.0 | 1.0 | 0.00 | 0.00 | 0.00 | 39 | 1007.9 |
| 20260902203804 | 73 | 53 | 1.0 | 1.0 | 0.00 | 0.00 | 0.00 | 39 | 1008.2 |
| 20260902203303 | 73 | 53 | 1.0 | 1.0 | 0.00 | 0.00 | 0.00 | 40 | 1008.3 |
| 20260902202804 | 73 | 53 | 1.0 | 1.0 | 0.00 | 0.00 | 0.00 | 38 | 1008.1 |
| 20260902202306 | 73 | 53 | 1.0 | 1.0 | 0.00 | 0.00 | 0.00 | 41 | 1008.0 |
| 20260902201804 | 73 | 53 | 1.0 | 1.0 | 0.00 | 0.00 | 0.00 | 39 | 1008.1 |
| 20260902201304 | 73 | 53 | 1.0 | 1.0 | 0.00 | 0.00 | 0.00 | 41 | 1008.1 |
| 20260902200804 | 73 | 53 | 1.0 | 1.0 | 0.00 | 0.00 | 0.00 | 43 | 1008.1 |
| 20260902200303 | 73 | 53 | 1.0 | 1.0 | 0.00 | 0.00 | 0.00 | 44 | 1008.2 |
| 20260902195804 | 73 | 53 | 1.0 | 1.0 | 0.00 | 0.00 | 0.00 | 44 | 1008.2 |
| 20260902195306 | 72 | 53 | 1.0 | 1.0 | 0.00 | 0.00 | 0.00 | 43 | 1008.1 |
| 20260902194803 | 72 | 53 | 1.0 | 1.0 | 0.00 | 0.00 | 0.00 | 41 | 1008.3 |
| 20260902194304 | 72 | 53 | 1.0 | 1.0 | 0.00 | 0.00 | 0.00 | 42 | 1008.1 |
| 20260902193804 | 72 | 53 | 1.0 | 1.0 | 0.00 | 0.00 | 0.00 | 43 | 1008.3 |
| 20260902193303 | 72 | 53 | 1.0 | 1.0 | 0.00 | 0.00 | 0.00 | 45 | 1008.5 |
| 20260902192804 | 71 | 53 | 1.0 | 1.0 | 0.00 | 0.00 | 0.00 | 44 | 1008.5 |
| 20260902192306 | 71 | 53 | 1.0 | 1.0 | 0.00 | 0.00 | 0.00 | 45 | 1008.7 |
| 20260902191804 | 71 | 53 | 1.0 | 1.0 | 0.00 | 0.00 | 0.00 | 44 | 1008.8 |
| 20260902191304 | 70 | 53 | 1.0 | 1.0 | 0.00 | 0.00 | 0.00 | 46 | 1008.6 |
| 20260902190804 | 70 | 53 | 1.0 | 1.0 | 0.00 | 0.00 | 0.00 | 47 | 1008.7 |
| 20260902190304 | 69 | 53 | 1.0 | 1.0 | 0.00 | 0.00 | 0.00 | 49 | 1009.0 |
| 20260902185306 | 68 | 53 | 1.0 | 1.0 | 0.00 | 0.00 | 0.00 | 46 | 1009.0 |
| 20260902184804 | 68 | 53 | 1.0 | 1.0 | 0.00 | 0.00 | 0.00 | 46 | 1008.9 |
| 20260902184304 | 68 | 53 | 1.0 | 1.0 | 0.00 | 0.00 | 0.00 | 46 | 1008.7 |
| 20260902183804 | 67 | 53 | 1.0 | 1.0 | 0.00 | 0.00 | 0.00 | 49 | 1008.9 |
| 20260902183304 | 67 | 53 | 1.0 | 1.0 | 0.00 | 0.00 | 0.00 | 49 | 1008.8 |
| 20260902182803 | 66 | 53 | 1.0 | 1.0 | 0.00 | 0.00 | 0.00 | 53 | 1008.9 |
| 20260902182306 | 66 | 53 | 1.0 | 1.0 | 0.00 | 0.00 | 0.00 | 52 | 1008.9 |
| 20260902181804 | 66 | 53 | 1.0 | 1.0 | 0.00 | 0.00 | 0.00 | 52 | 1009.0 |
| 20260902181304 | 65 | 53 | 1.0 | 1.0 | 0.00 | 0.00 | 0.00 | 53 | 1008.9 |
| 20260902180804 | 65 | 53 | 1.0 | 1.0 | 0.00 | 0.00 | 0.00 | 52 | 1009.0 |
| 20260902180304 | 65 | 53 | 1.0 | 1.0 | 0.00 | 0.00 | 0.00 | 54 | 1009.1 |
| 20260902175804 | 65 | 53 | 1.0 | 1.0 | 0.00 | 0.00 | 0.00 | 54 | 1009.0 |
| 20260902175307 | 65 | 53 | 1.0 | 1.0 | 0.00 | 0.00 | 0.00 | 54 | 1008.9 |
| 20260902174304 | 65 | 53 | 1.0 | 1.0 | 0.00 | 0.00 | 0.00 | 54 | 1009.1 |
| 20260902173804 | 64 | 53 | 1.0 | 1.0 | 0.00 | 0.00 | 0.00 | 56 | 1009.3 |
| 20260902173304 | 64 | 53 | 1.0 | 1.0 | 0.00 | 0.00 | 0.00 | 58 | 1009.1 |
| 20260902172804 | 64 | 53 | 1.0 | 1.0 | 0.00 | 0.00 | 0.00 | 58 | 1009.1 |
| 20260902172308 | 64 | 53 | 1.0 | 1.0 | 0.00 | 0.00 | 0.00 | 58 | 1009.2 |
| 20260902171804 | 64 | 53 | 1.0 | 1.0 | 0.00 | 0.00 | 0.00 | 58 | 1009.1 |
| 20260902170804 | 64 | 53 | 1.0 | 1.0 | 0.00 | 0.00 | 0.00 | 56 | 1008.8 |
| 20260902170304 | 64 | 53 | 1.0 | 1.0 | 0.00 | 0.00 | 0.00 | 55 | 1008.8 |
| 20260902165804 | 64 | 53 | 1.0 | 1.0 | 0.00 | 0.00 | 0.00 | 56 | 1009.1 |
| 20260902165308 | 64 | 53 | 1.0 | 1.0 | 0.00 | 0.00 | 0.00 | 57 | 1009.0 |
| 20260902164304 | 64 | 53 | 1.0 | 1.0 | 0.00 | 0.00 | 0.00 | 54 | 1009.2 |
| 20260902163804 | 64 | 53 | 1.0 | 1.0 | 0.00 | 0.00 | 0.00 | 55 | 1009.0 |
| 20260902163304 | 64 | 53 | 1.0 | 1.0 | 0.00 | 0.00 | 0.00 | 54 | 1008.9 |
| 20260902162803 | 64 | 53 | 1.0 | 1.0 | 0.00 | 0.00 | 0.00 | 55 | 1008.5 |
| 20260902161804 | 63 | 53 | 1.0 | 1.0 | 0.00 | 0.00 | 0.00 | 56 | 1008.2 |
| 20260902161304 | 63 | 53 | 1.0 | 1.0 | 0.00 | 0.00 | 0.00 | 57 | 1008.4 |
| 20260902155804 | 63 | 53 | 1.0 | 1.0 | 0.00 | 0.00 | 0.00 | 57 | 1008.2 |
| 20260902155306 | 62 | 53 | 1.0 | 1.0 | 0.00 | 0.00 | 0.00 | 59 | 1008.3 |
| 20260902154304 | 62 | 53 | 1.0 | 1.0 | 0.00 | 0.00 | 0.00 | 59 | 1008.4 |
| 20260902153804 | 62 | 53 | 1.0 | 1.0 | 0.00 | 0.00 | 0.00 | 60 | 1008.4 |
| 20260902153303 | 61 | 53 | 1.0 | 1.0 | 0.00 | 0.00 | 0.00 | 59 | 1008.4 |
| 20260902152804 | 61 | 53 | 1.0 | 1.0 | 0.00 | 0.00 | 0.00 | 62 | 1008.6 |
| 20260902152307 | 60 | 53 | 1.0 | 1.0 | 0.00 | 0.00 | 0.00 | 62 | 1008.6 |
| 20260902151804 | 60 | 53 | 1.0 | 1.0 | 0.00 | 0.00 | 0.00 | 64 | 1008.8 |
| 20260902150804 | 60 | 53 | 1.0 | 1.0 | 0.00 | 0.00 | 0.00 | 66 | 1008.9 |
| 20260902150304 | 59 | 53 | 1.0 | 1.0 | 0.00 | 0.00 | 0.00 | 66 | 1008.8 |
| 20260902145803 | 59 | 53 | 1.0 | 1.0 | 0.00 | 0.00 | 0.00 | 66 | 1009.0 |
| 20260902145306 | 59 | 53 | 1.0 | 1.0 | 0.00 | 0.00 | 0.00 | 66 | 1009.0 |
| 20260902144804 | 59 | 53 | 1.0 | 1.0 | 0.00 | 0.00 | 0.00 | 65 | 1009.0 |
| 20260902144304 | 59 | 53 | 1.0 | 1.0 | 0.00 | 0.00 | 0.00 | 64 | 1009.0 |
| 20260902143803 | 59 | 53 | 1.0 | 1.0 | 0.00 | 0.00 | 0.00 | 64 | 1008.7 |
| 20260902143304 | 59 | 53 | 1.0 | 1.0 | 0.00 | 0.00 | 0.00 | 64 | 1008.9 |
| 20260902142803 | 59 | 53 | 1.0 | 1.0 | 0.00 | 0.00 | 0.00 | 65 | 1008.9 |
| 20260902142306 | 59 | 53 | 1.0 | 1.0 | 0.00 | 0.00 | 0.00 | 65 | 1008.8 |
| 20260902141804 | 59 | 53 | 1.0 | 1.0 | 0.00 | 0.00 | 0.00 | 65 | 1008.9 |
| 20260902141304 | 58 | 53 | 1.0 | 1.0 | 0.00 | 0.00 | 0.00 | 65 | 1008.7 |
| 20260902140803 | 58 | 53 | 1.0 | 1.0 | 0.00 | 0.00 | 0.00 | 65 | 1008.7 |
| 20260902140304 | 58 | 53 | 1.0 | 1.0 | 0.00 | 0.00 | 0.00 | 64 | 1008.8 |
| 20260902135804 | 58 | 53 | 1.0 | 1.0 | 0.00 | 0.00 | 0.00 | 64 | 1008.7 |
| 20260902135306 | 58 | 53 | 1.0 | 1.0 | 0.00 | 0.00 | 0.00 | 64 | 1008.5 |
| 20260902134804 | 58 | 53 | 1.0 | 1.0 | 0.00 | 0.00 | 0.00 | 63 | 1008.5 |
| 20260902134304 | 58 | 53 | 1.0 | 1.0 | 0.00 | 0.00 | 0.00 | 63 | 1008.5 |
| 20260902133803 | 58 | 53 | 1.0 | 1.0 | 0.00 | 0.00 | 0.00 | 63 | 1008.5 |
| 20260902133304 | 58 | 53 | 1.0 | 1.0 | 0.00 | 0.00 | 0.00 | 63 | 1008.8 |
| 20260902132804 | 58 | 53 | 1.0 | 1.0 | 0.00 | 0.00 | 0.00 | 63 | 1008.4 |
| 20260902131304 | 58 | 53 | 1.0 | 1.0 | 0.00 | 0.00 | 0.00 | 63 | 1008.5 |
| 20260902130804 | 57 | 53 | 1.0 | 1.0 | 0.00 | 0.00 | 0.00 | 64 | 1008.4 |
| 20260902130304 | 57 | 53 | 1.0 | 1.0 | 0.00 | 0.00 | 0.00 | 65 | 1008.3 |
| 20260902125803 | 57 | 53 | 1.0 | 1.0 | 0.00 | 0.00 | 0.00 | 64 | 1008.3 |
| 20260902125306 | 57 | 53 | 1.0 | 1.0 | 0.00 | 0.00 | 0.00 | 64 | 1008.3 |
| 20260902124804 | 57 | 53 | 1.0 | 1.0 | 0.00 | 0.00 | 0.00 | 64 | 1008.3 |
| 20260902124304 | 57 | 53 | 1.0 | 1.0 | 0.00 | 0.00 | 0.00 | 64 | 1008.1 |
| 20260902123804 | 57 | 53 | 1.0 | 1.0 | 0.00 | 0.00 | 0.00 | 63 | 1008.2 |
| 20260902122804 | 57 | 53 | 1.0 | 1.0 | 0.00 | 0.00 | 0.00 | 64 | 1008.0 |
| 20260902122305 | 57 | 53 | 1.0 | 1.0 | 0.00 | 0.00 | 0.00 | 64 | 1008.1 |
| 20260902121803 | 57 | 53 | 1.0 | 1.0 | 0.00 | 0.00 | 0.00 | 64 | 1008.2 |
| 20260902120804 | 57 | 53 | 1.0 | 1.0 | 0.00 | 0.00 | 0.00 | 66 | 1008.3 |
| 20260902120303 | 56 | 53 | 1.0 | 1.0 | 0.00 | 0.00 | 0.00 | 66 | 1008.4 |
| 20260902115803 | 56 | 53 | 1.0 | 1.0 | 0.00 | 0.00 | 0.00 | 66 | 1008.6 |
| 20260902115307 | 56 | 53 | 1.0 | 1.0 | 0.00 | 0.00 | 0.00 | 66 | 1008.6 |
| 20260902114804 | 56 | 53 | 1.0 | 1.0 | 0.00 | 0.00 | 0.00 | 65 | 1008.5 |
| 20260902114303 | 56 | 53 | 1.0 | 1.0 | 0.00 | 0.00 | 0.00 | 65 | 1008.6 |
| 20260902113804 | 56 | 53 | 1.0 | 1.0 | 0.00 | 0.00 | 0.00 | 66 | 1008.5 |
| 20260902113304 | 56 | 53 | 1.0 | 1.0 | 0.00 | 0.00 | 0.00 | 66 | 1008.5 |
| 20260902112803 | 56 | 53 | 1.0 | 1.0 | 0.00 | 0.00 | 0.00 | 66 | 1008.4 |
| 20260902112305 | 56 | 53 | 1.0 | 1.0 | 0.00 | 0.00 | 0.00 | 65 | 1008.7 |
| 20260902111803 | 56 | 53 | 1.0 | 1.0 | 0.00 | 0.00 | 0.00 | 65 | 1008.4 |
| 20260902111304 | 56 | 53 | 1.0 | 1.0 | 0.00 | 0.00 | 0.00 | 65 | 1008.5 |
| 20260902110804 | 56 | 53 | 1.0 | 1.0 | 0.00 | 0.00 | 0.00 | 66 | 1008.5 |
| 20260902110303 | 56 | 53 | 1.0 | 1.0 | 0.00 | 0.00 | 0.00 | 65 | 1008.6 |
| 20260902105804 | 56 | 53 | 1.0 | 1.0 | 0.00 | 0.00 | 0.00 | 65 | 1008.4 |
| 20260902105306 | 56 | 53 | 1.0 | 1.0 | 0.00 | 0.00 | 0.00 | 66 | 1008.5 |
| 20260902104804 | 56 | 53 | 1.0 | 1.0 | 0.00 | 0.00 | 0.00 | 66 | 1008.4 |
| 20260902104304 | 56 | 53 | 1.0 | 1.0 | 0.00 | 0.00 | 0.00 | 65 | 1008.5 |
| 20260902103803 | 56 | 53 | 1.0 | 1.0 | 0.00 | 0.00 | 0.00 | 65 | 1008.7 |
| 20260902103304 | 56 | 53 | 1.0 | 1.0 | 0.00 | 0.00 | 0.00 | 65 | 1008.4 |
| 20260902102307 | 56 | 53 | 1.0 | 1.0 | 0.00 | 0.00 | 0.00 | 64 | 1008.5 |
| 20260902101804 | 56 | 53 | 1.0 | 1.0 | 0.00 | 0.00 | 0.00 | 64 | 1008.6 |
| 20260902101303 | 56 | 53 | 1.0 | 1.0 | 0.00 | 0.00 | 0.00 | 63 | 1008.5 |
| 20260902100804 | 56 | 53 | 1.0 | 1.0 | 0.00 | 0.00 | 0.00 | 63 | 1008.3 |
| 20260902095804 | 57 | 53 | 1.0 | 1.0 | 0.00 | 0.00 | 0.00 | 64 | 1008.6 |
| 20260902094803 | 57 | 53 | 1.0 | 1.0 | 0.00 | 0.00 | 0.00 | 62 | 1008.7 |
| 20260902094304 | 57 | 53 | 1.0 | 1.0 | 0.00 | 0.00 | 0.00 | 62 | 1008.7 |
| 20260902093803 | 57 | 53 | 1.0 | 1.0 | 0.00 | 0.00 | 0.00 | 63 | 1008.7 |
| 20260902092804 | 57 | 53 | 1.0 | 1.0 | 0.00 | 0.00 | 0.00 | 62 | 1008.8 |
| 20260902092305 | 57 | 53 | 1.0 | 1.0 | 0.00 | 0.00 | 0.00 | 62 | 1008.7 |
| 20260902091804 | 57 | 53 | 1.0 | 1.0 | 0.00 | 0.00 | 0.00 | 63 | 1008.8 |
| 20260902091304 | 57 | 53 | 1.0 | 1.0 | 0.00 | 0.00 | 0.00 | 63 | 1008.6 |
| 20260902090804 | 57 | 53 | 1.0 | 1.0 | 0.00 | 0.00 | 0.00 | 63 | 1008.4 |
| 20260902090304 | 57 | 53 | 1.0 | 1.0 | 0.00 | 0.00 | 0.00 | 63 | 1008.5 |
| 20260902084804 | 56 | 53 | 1.0 | 1.0 | 0.00 | 0.00 | 0.00 | 64 | 1008.6 |
| 20260902084304 | 56 | 53 | 1.0 | 1.0 | 0.00 | 0.00 | 0.00 | 63 | 1008.6 |
| 20260902083804 | 56 | 53 | 1.0 | 1.0 | 0.00 | 0.00 | 0.00 | 63 | 1008.7 |
| 20260902083304 | 56 | 53 | 1.0 | 1.0 | 0.00 | 0.00 | 0.00 | 63 | 1008.7 |
| 20260902082804 | 56 | 53 | 1.0 | 1.0 | 0.00 | 0.00 | 0.00 | 64 | 1008.7 |
| 20260902082309 | 56 | 53 | 1.0 | 1.0 | 0.00 | 0.00 | 0.00 | 63 | 1008.6 |
| 20260902081804 | 57 | 53 | 1.0 | 1.0 | 0.00 | 0.00 | 0.00 | 64 | 1008.8 |
| 20260902081304 | 57 | 53 | 1.0 | 1.0 | 0.00 | 0.00 | 0.00 | 64 | 1008.7 |
| 20260902080804 | 57 | 53 | 1.0 | 1.0 | 0.00 | 0.00 | 0.00 | 64 | 1008.8 |
| 20260902080304 | 57 | 53 | 1.0 | 1.0 | 0.00 | 0.00 | 0.00 | 64 | 1009.0 |
| 20260902075803 | 57 | 53 | 1.0 | 1.0 | 0.00 | 0.00 | 0.00 | 63 | 1008.8 |
| 20260902074804 | 57 | 53 | 1.0 | 1.0 | 0.00 | 0.00 | 0.00 | 63 | 1008.9 |
| 20260902074303 | 57 | 53 | 1.0 | 1.0 | 0.00 | 0.00 | 0.00 | 63 | 1008.7 |
| 20260902073804 | 57 | 53 | 1.0 | 1.0 | 0.00 | 0.00 | 0.00 | 63 | 1008.9 |
| 20260902073304 | 57 | 53 | 1.0 | 1.0 | 0.00 | 0.00 | 0.00 | 64 | 1009.0 |
| 20260902072804 | 57 | 53 | 1.0 | 1.0 | 0.00 | 0.00 | 0.00 | 64 | 1008.9 |
| 20260902072309 | 57 | 53 | 1.0 | 1.0 | 0.00 | 0.00 | 0.00 | 63 | 1009.0 |
| 20260902071803 | 57 | 53 | 1.0 | 1.0 | 0.00 | 0.00 | 0.00 | 63 | 1009.1 |
| 20260902071304 | 57 | 53 | 1.0 | 1.0 | 0.00 | 0.00 | 0.00 | 63 | 1009.2 |
| 20260902070803 | 57 | 53 | 1.0 | 1.0 | 0.00 | 0.00 | 0.00 | 62 | 1009.0 |
| 20260902070304 | 57 | 53 | 1.0 | 1.0 | 0.00 | 0.00 | 0.00 | 63 | 1009.1 |
| 20260902065306 | 58 | 53 | 1.0 | 1.0 | 0.00 | 0.00 | 0.00 | 62 | 1009.1 |
| 20260902064804 | 58 | 53 | 1.0 | 1.0 | 0.00 | 0.00 | 0.00 | 62 | 1009.2 |
| 20260902063803 | 58 | 53 | 1.0 | 1.0 | 0.00 | 0.00 | 0.00 | 62 | 1009.1 |
| 20260902063304 | 58 | 53 | 1.0 | 1.0 | 0.00 | 0.00 | 0.00 | 61 | 1009.3 |
| 20260902062803 | 58 | 53 | 1.0 | 1.0 | 0.00 | 0.00 | 0.00 | 61 | 1009.3 |
| 20260902062306 | 58 | 53 | 1.0 | 1.0 | 0.00 | 0.00 | 0.00 | 61 | 1009.4 |
| 20260902061804 | 59 | 53 | 1.0 | 1.0 | 0.00 | 0.00 | 0.00 | 61 | 1009.2 |
| 20260902061304 | 59 | 53 | 1.0 | 1.0 | 0.00 | 0.00 | 0.00 | 61 | 1009.3 |
| 20260902060803 | 59 | 53 | 1.0 | 1.0 | 0.00 | 0.00 | 0.00 | 60 | 1009.3 |
| 20260902060304 | 59 | 53 | 1.0 | 1.0 | 0.00 | 0.00 | 0.00 | 61 | 1009.3 |
| 20260902055804 | 59 | 53 | 1.0 | 1.0 | 0.00 | 0.00 | 0.00 | 60 | 1009.5 |
| 20260902055307 | 59 | 53 | 1.0 | 1.0 | 0.00 | 0.00 | 0.00 | 60 | 1009.3 |
| 20260902054804 | 59 | 53 | 1.0 | 1.0 | 0.00 | 0.00 | 0.00 | 59 | 1009.5 |
| 20260902054304 | 59 | 53 | 1.0 | 1.0 | 0.00 | 0.00 | 0.00 | 59 | 1009.3 |
| 20260902053803 | 59 | 53 | 1.0 | 1.0 | 0.00 | 0.00 | 0.00 | 58 | 1009.4 |
| 20260902053304 | 59 | 53 | 1.0 | 1.0 | 0.00 | 0.00 | 0.00 | 58 | 1009.5 |
| 20260902052804 | 60 | 53 | 1.0 | 1.0 | 0.00 | 0.00 | 0.00 | 58 | 1009.4 |
| 20260902051804 | 60 | 53 | 1.0 | 1.0 | 0.00 | 0.00 | 0.00 | 57 | 1009.5 |
| 20260902051304 | 60 | 53 | 1.0 | 1.0 | 0.00 | 0.00 | 0.00 | 57 | 1009.6 |
| 20260902050804 | 60 | 53 | 1.0 | 1.0 | 0.00 | 0.00 | 0.00 | 57 | 1009.5 |
| 20260902045803 | 60 | 53 | 1.0 | 1.0 | 0.00 | 0.00 | 0.00 | 56 | 1009.6 |
| 20260902045306 | 61 | 53 | 1.0 | 1.0 | 0.00 | 0.00 | 0.00 | 56 | 1009.6 |
| 20260902044803 | 61 | 53 | 1.0 | 1.0 | 0.00 | 0.00 | 0.00 | 56 | 1009.6 |
| 20260902044304 | 61 | 53 | 1.0 | 1.0 | 0.00 | 0.00 | 0.00 | 56 | 1009.7 |
| 20260902043804 | 61 | 53 | 1.0 | 1.0 | 0.00 | 0.00 | 0.00 | 56 | 1009.8 |
| 20260902043303 | 61 | 53 | 1.0 | 1.0 | 0.00 | 0.00 | 0.00 | 56 | 1009.6 |
| 20260902042804 | 61 | 53 | 1.0 | 1.0 | 0.00 | 0.00 | 0.00 | 55 | 1009.8 |
| 20260902041803 | 62 | 53 | 1.0 | 1.0 | 0.00 | 0.00 | 0.00 | 55 | 1009.7 |
| 20260902041304 | 62 | 53 | 1.0 | 1.0 | 0.00 | 0.00 | 0.00 | 54 | 1009.7 |
| 20260902040803 | 62 | 53 | 1.0 | 1.0 | 0.00 | 0.00 | 0.00 | 55 | 1009.8 |
| 20260902035804 | 63 | 53 | 1.0 | 1.0 | 0.00 | 0.00 | 0.00 | 53 | 1009.8 |
| 20260902035305 | 63 | 53 | 1.0 | 1.0 | 0.00 | 0.00 | 0.00 | 53 | 1009.9 |
| 20260902034804 | 63 | 53 | 1.0 | 1.0 | 0.00 | 0.00 | 0.00 | 53 | 1009.7 |
| 20260902034304 | 63 | 53 | 1.0 | 1.0 | 0.00 | 0.00 | 0.00 | 52 | 1009.9 |
| 20260902033804 | 64 | 53 | 1.0 | 1.0 | 0.00 | 0.00 | 0.00 | 52 | 1009.7 |
| 20260902033304 | 64 | 53 | 1.0 | 1.0 | 0.00 | 0.00 | 0.00 | 52 | 1009.8 |
| 20260902032804 | 64 | 53 | 1.0 | 1.0 | 0.00 | 0.00 | 0.00 | 51 | 1009.9 |
| 20260902031804 | 65 | 53 | 1.0 | 1.0 | 0.00 | 0.00 | 0.00 | 51 | 1009.9 |
| 20260902031304 | 65 | 53 | 1.0 | 1.0 | 0.00 | 0.00 | 0.00 | 50 | 1009.9 |
| 20260902030803 | 65 | 53 | 1.0 | 1.0 | 0.00 | 0.00 | 0.00 | 49 | 1009.8 |
| 20260902030303 | 66 | 53 | 1.0 | 1.0 | 0.00 | 0.00 | 0.00 | 48 | 1009.9 |
| 20260902025804 | 66 | 53 | 1.0 | 1.0 | 0.00 | 0.00 | 0.00 | 48 | 1009.7 |
| 20260902025306 | 66 | 53 | 1.0 | 1.0 | 0.00 | 0.00 | 0.00 | 47 | 1009.8 |
| 20260902024304 | 67 | 53 | 1.0 | 1.0 | 0.00 | 0.00 | 0.00 | 46 | 1009.8 |
| 20260902023804 | 68 | 53 | 1.0 | 1.0 | 0.00 | 0.00 | 0.00 | 45 | 1009.8 |
| 20260902023304 | 68 | 53 | 1.0 | 1.0 | 0.00 | 0.00 | 0.00 | 44 | 1009.8 |
| 20260902022306 | 69 | 53 | 1.0 | 1.0 | 0.00 | 0.00 | 0.00 | 44 | 1009.8 |
| 20260902021804 | 69 | 53 | 1.0 | 1.0 | 0.00 | 0.00 | 0.00 | 43 | 1009.9 |
| 20260902021304 | 70 | 53 | 1.0 | 1.0 | 0.00 | 0.00 | 0.00 | 43 | 1009.7 |
| 20260902020803 | 70 | 53 | 1.0 | 1.0 | 0.00 | 0.00 | 0.00 | 42 | 1009.7 |
| 20260902020304 | 71 | 53 | 1.0 | 1.0 | 0.00 | 0.00 | 0.00 | 41 | 1009.7 |
| 20260902015804 | 71 | 53 | 1.0 | 1.0 | 0.00 | 0.00 | 0.00 | 41 | 1009.9 |
| 20260902014804 | 72 | 53 | 1.0 | 1.0 | 0.00 | 0.00 | 0.00 | 41 | 1009.9 |
| 20260902013304 | 72 | 53 | 1.0 | 1.0 | 0.00 | 0.00 | 0.00 | 40 | 1009.8 |
| 20260902012803 | 72 | 53 | 1.0 | 1.0 | 0.00 | 0.00 | 0.00 | 39 | 1009.9 |
| 20260902012309 | 72 | 53 | 1.0 | 1.0 | 0.00 | 0.00 | 0.00 | 38 | 1009.7 |
| 20260902011304 | 73 | 53 | 1.0 | 1.0 | 0.00 | 0.00 | 0.00 | 37 | 1009.9 |
| 20260902010804 | 73 | 53 | 1.0 | 1.0 | 0.00 | 0.00 | 0.00 | 36 | 1009.8 |
| 20260902010304 | 73 | 53 | 1.0 | 1.0 | 0.00 | 0.00 | 0.00 | 36 | 1010.0 |
| 20260902005804 | 73 | 53 | 1.0 | 1.0 | 0.00 | 0.00 | 0.00 | 36 | 1009.8 |
| 20260902005306 | 73 | 53 | 1.0 | 1.0 | 0.00 | 0.00 | 0.00 | 36 | 1009.9 |
| 20260902004804 | 74 | 53 | 1.0 | 1.0 | 0.00 | 0.00 | 0.00 | 37 | 1009.6 |
| 20260902004304 | 74 | 53 | 1.0 | 1.0 | 0.00 | 0.00 | 0.00 | 37 | 1009.7 |
| 20260902003803 | 74 | 53 | 1.0 | 1.0 | 0.00 | 0.00 | 0.00 | 37 | 1009.7 |
| 20260902003303 | 75 | 53 | 1.0 | 1.0 | 0.00 | 0.00 | 0.00 | 37 | 1009.8 |
| 20260902002804 | 75 | 53 | 1.0 | 1.0 | 0.00 | 0.00 | 0.00 | 36 | 1009.9 |
| 20260902002306 | 75 | 53 | 1.0 | 1.0 | 0.00 | 0.00 | 0.00 | 35 | 1009.8 |
| 20260902001804 | 75 | 53 | 1.0 | 1.0 | 0.00 | 0.00 | 0.00 | 36 | 1010.0 |
| 20260902001304 | 75 | 53 | 1.0 | 1.0 | 0.00 | 0.00 | 0.00 | 35 | 1010.0 |
| 20260902000803 | 75 | 53 | 1.0 | 1.0 | 0.00 | 0.00 | 0.00 | 35 | 1009.9 |
| 20260902000304 | 75 | 53 | 1.0 | 1.0 | 0.00 | 0.00 | 0.00 | 36 | 1010.1 |
| 20260901235804 | 75 | 53 | 1.0 | 1.0 | 0.00 | 0.00 | 0.00 | 35 | 1010.0 |
| 20260901235307 | 75 | 53 | 1.0 | 1.0 | 0.00 | 0.00 | 0.00 | 35 | 1009.9 |
| 20260901234804 | 75 | 53 | 1.0 | 1.0 | 0.00 | 0.00 | 0.00 | 35 | 1010.1 |
| 20260901234304 | 75 | 53 | 1.0 | 1.0 | 0.00 | 0.00 | 0.00 | 33 | 1010.2 |
| 20260901233804 | 75 | 53 | 1.0 | 1.0 | 0.00 | 0.00 | 0.00 | 33 | 1010.1 |
| 20260901233304 | 75 | 53 | 1.0 | 1.0 | 0.00 | 0.00 | 0.00 | 33 | 1010.1 |
| 20260901232804 | 75 | 53 | 1.0 | 1.0 | 0.00 | 0.00 | 0.00 | 36 | 1010.2 |
| 20260901232306 | 75 | 53 | 1.0 | 1.0 | 0.00 | 0.00 | 0.00 | 35 | 1010.2 |
| 20260901231804 | 75 | 53 | 1.0 | 1.0 | 0.00 | 0.00 | 0.00 | 34 | 1010.1 |
| 20260901231304 | 75 | 53 | 1.0 | 1.0 | 0.00 | 0.00 | 0.00 | 36 | 1010.3 |
| 20260901230804 | 75 | 53 | 1.0 | 1.0 | 0.00 | 0.00 | 0.00 | 37 | 1010.4 |
| 20260901230304 | 75 | 53 | 1.0 | 1.0 | 0.00 | 0.00 | 0.00 | 36 | 1010.4 |
| 20260901225804 | 75 | 53 | 1.0 | 1.0 | 0.00 | 0.00 | 0.00 | 36 | 1010.4 |
| 20260901225306 | 75 | 53 | 1.0 | 1.0 | 0.00 | 0.00 | 0.00 | 34 | 1010.3 |
| 20260901224803 | 75 | 53 | 1.0 | 1.0 | 0.00 | 0.00 | 0.00 | 34 | 1010.4 |
| 20260901223803 | 75 | 53 | 1.0 | 1.0 | 0.00 | 0.00 | 0.00 | 34 | 1010.6 |
| 20260901223304 | 74 | 53 | 1.0 | 1.0 | 0.00 | 0.00 | 0.00 | 34 | 1010.6 |
| 20260901222306 | 74 | 53 | 1.0 | 1.0 | 0.00 | 0.00 | 0.00 | 34 | 1010.6 |
| 20260901221804 | 74 | 53 | 1.0 | 1.0 | 0.00 | 0.00 | 0.00 | 34 | 1010.6 |
| 20260901221304 | 74 | 53 | 1.0 | 1.0 | 0.00 | 0.00 | 0.00 | 33 | 1010.6 |
| 20260901220804 | 75 | 53 | 1.0 | 1.0 | 0.00 | 0.00 | 0.00 | 34 | 1010.7 |
| 20260901220304 | 75 | 53 | 1.0 | 1.0 | 0.00 | 0.00 | 0.00 | 34 | 1010.7 |
| 20260901215804 | 75 | 53 | 1.0 | 1.0 | 0.00 | 0.00 | 0.00 | 35 | 1010.8 |
| 20260901215306 | 75 | 53 | 1.0 | 1.0 | 0.00 | 0.00 | 0.00 | 35 | 1010.8 |
| 20260901214804 | 76 | 53 | 1.0 | 1.0 | 0.00 | 0.00 | 0.00 | 37 | 1010.9 |
| 20260901214304 | 76 | 53 | 1.0 | 1.0 | 0.00 | 0.00 | 0.00 | 35 | 1010.9 |
| 20260901213804 | 76 | 53 | 1.0 | 1.0 | 0.00 | 0.00 | 0.00 | 34 | 1010.9 |
| 20260901212803 | 75 | 53 | 1.0 | 1.0 | 0.00 | 0.00 | 0.00 | 36 | 1011.0 |
| 20260901212306 | 75 | 53 | 1.0 | 1.0 | 0.00 | 0.00 | 0.00 | 38 | 1011.1 |
| 20260901211804 | 75 | 53 | 1.0 | 1.0 | 0.00 | 0.00 | 0.00 | 37 | 1011.2 |
| 20260901211303 | 75 | 53 | 1.0 | 1.0 | 0.00 | 0.00 | 0.00 | 37 | 1011.2 |